Location: Sevilla
(37.3933°N, 5.9839°W)
Time: 06:06:41
(UTC+02:00)

Transit 2A - Pass Details

Date: 27 June 2024
Orbit: 591 x 960 km, 66.7° (Epoch: 15 July)

Event Time Altitude Azimuth Distance (km) Brightness Sun altitude
Rises 16:01:17 0° 208° (SSW) 2,977 9.3 65.4°
Reaches altitude 10° 16:03:28 10° 209° (SSW) 2,115 8.8 65.0°
Maximum altitude 16:08:17 83° 298° (WNW) 744 7.6 64.2°
Drops below altitude 10° 16:13:43 10° 26° (NNE) 2,372 8.5 63.2°
Sets 16:16:17 0° 28° (NNE) 3,368 9.1 62.7°
